(141031) = 2001 WT60 = 2004 FB62

Discovered at Socorro on 2001-11-19 by LINEAR.

Orbit

Orbit type: Main Belt

Note: WebGL enabled browser required.

epoch2024-03-31.0
epoch JD2460400.5
perihelion date2023-02-17.61935
perihelion JD2459993.11935
argument of perihelion (°)282.39652
ascending node (°)41.43842
inclination (°)4.96656
eccentricity0.1017391
perihelion distance (AU)2.8440200
Tisserand w.r.t. Jupiter3.2
ΔV w.r.t. Earth (km/sec)10.6
semimajor axis (AU)3.1661402
mean anomaly (°)71.27037
mean daily motion (°/day)0.17494790
aphelion distance (AU)3.488
period (years)5.63
P-vector [x]0.80489344
P-vector [y]-0.50526188
P-vector [z]-0.31121856
Q-vector [x]0.59064686
Q-vector [y]0.73275470
Q-vector [z]0.33794502
absolute magnitude15.15
phase slope0.15
uncertainty0
referenceMPEC 2024-C163
observations used674
oppositions18
arc length (days)8503
first opposition used2000
last opposition used2023
residual rms (arc-secs)0.74
perturbers coarse indicatorM-v
perturbers precise indicator003Ek
first observation date used2000-08-26.0
last observation date used2023-12-07.0
computer nameMPCLINUX
JD of orbit computation2456700.461401
perihelion JD uncertainty (days)1.6172E-04
argument of perihelion uncertainty (°)6.2945E-05
ascending node uncertainty (°)5.6519E-05
inclination uncertainty (°)5.4439E-06
eccentricity uncertainty 4.5110E-08
perihelion distance uncertainty (AU)1.5290E-07
Minimum Orbit Intersection Distances (in AU)
for orbit epoch: 2460200.5, reference: E2024-CG3
Mercury2.42164
Venus2.11624
Earth1.8367
Mars1.46081
Jupiter1.81902
Saturn5.68127
Uranus14.9926
Neptune26.7165

Observations

690 total observations over interval: 2000 08 26.27382 – 2023 12 07.273318
These data are available for download (format description).

Date (UT) J2000 RA J2000 Dec Magn Location Ref
2000 08 26.27382 22 03 50.76 -19 44 30.5 18.9   704 – Lincoln Laboratory ETS, New Mexico MPS 106208
2000 08 26.28726 22 03 50.12 -19 44 32.7 19.7   704 – Lincoln Laboratory ETS, New Mexico MPS 106208
2000 08 26.32764 22 03 48.14 -19 44 39.2 19.4   704 – Lincoln Laboratory ETS, New Mexico MPS 106208
2001 10 21.42006 03 51 20.13 +21 08 53.8 19.6   704 – Lincoln Laboratory ETS, New Mexico MPS 49663
2001 10 21.43668 03 51 19.52 +21 08 53.9 20.0   704 – Lincoln Laboratory ETS, New Mexico MPS 49663
2001 10 21.45327 03 51 18.87 +21 08 53.9 19.9   704 – Lincoln Laboratory ETS, New Mexico MPS 49663
2001 10 21.48649 03 51 17.58 +21 08 52.1 19.9   704 – Lincoln Laboratory ETS, New Mexico MPS 49663
2001 10 26.33001 03 48 10.24 +21 06 23.0 19.9   704 – Lincoln Laboratory ETS, New Mexico MPS 49663
2001 10 26.36307 03 48 08.83 +21 06 21.4 20.2   704 – Lincoln Laboratory ETS, New Mexico MPS 49663
2001 10 26.37965 03 48 08.09 +21 06 21.3 19.8   704 – Lincoln Laboratory ETS, New Mexico MPS 49663
2001 11 09.35530 03 37 11.40 +20 51 08.8 19.8   704 – Lincoln Laboratory ETS, New Mexico MPS 49663
2001 11 09.38403 03 37 09.80 +20 51 03.8 19.6   704 – Lincoln Laboratory ETS, New Mexico MPS 49663
2001 11 09.39840 03 37 09.03 +20 51 02.8 19.8   704 – Lincoln Laboratory ETS, New Mexico MPS 49663
2001 11 09.41276 03 37 08.30 +20 51 02.3 20.2   704 – Lincoln Laboratory ETS, New Mexico MPS 49663
2001 11 19.28619 03 28 33.56 +20 34 33.3 19.5   704 – Lincoln Laboratory ETS, New Mexico MPS 49663
2001 11 19.30086 03 28 32.77 +20 34 30.9 20.0   704 – Lincoln Laboratory ETS, New Mexico MPS 49663
2001 11 19.31552 03 28 31.97 +20 34 30.2 20.8   704 – Lincoln Laboratory ETS, New Mexico MPS 49663
2001 11 19.33019 03 28 31.24 +20 34 28.6 20.0   704 – Lincoln Laboratory ETS, New Mexico MPS 49663
2001 11 19.34486 03 28 30.43 +20 34 26.6 20.2   704 – Lincoln Laboratory ETS, New Mexico MPS 49663
2001 11 21.23056 03 26 52.62 +20 30 58.3 19.8   704 – Lincoln Laboratory ETS, New Mexico MPS 49663
2001 11 21.24521 03 26 51.91 +20 30 56.7 20.3   704 – Lincoln Laboratory ETS, New Mexico MPS 49663
2001 11 21.25988 03 26 51.13 +20 30 55.0 19.6   704 – Lincoln Laboratory ETS, New Mexico MPS 49663
2001 11 21.27454 03 26 50.35 +20 30 53.9 20.1   704 – Lincoln Laboratory ETS, New Mexico MPS 49663
2001 11 21.28922 03 26 49.53 +20 30 51.3 20.3   704 – Lincoln Laboratory ETS, New Mexico MPS 49663
2001 12 10.21603 03 12 19.57 +19 56 23.1 19.8   704 – Lincoln Laboratory ETS, New Mexico MPS 49663
2001 12 10.23159 03 12 18.95 +19 56 20.8 20.4   704 – Lincoln Laboratory ETS, New Mexico MPS 49663
2001 12 10.24695 03 12 18.31 +19 56 20.4 20.7   704 – Lincoln Laboratory ETS, New Mexico MPS 49663
2001 12 15.16508 03 09 26.73 +19 49 00.7 20.6   704 – Lincoln Laboratory ETS, New Mexico MPS 49663
2001 12 15.18266 03 09 26.16 +19 48 56.5 20.6   704 – Lincoln Laboratory ETS, New Mexico MPS 49663
2001 12 15.19993 03 09 25.60 +19 48 56.2 21.0   704 – Lincoln Laboratory ETS, New Mexico MPS 49663
2001 12 15.21504 03 09 25.12 +19 48 55.3 20.4   704 – Lincoln Laboratory ETS, New Mexico MPS 49663
2001 12 19.14672 03 07 29.47 +19 44 03.2 20.3   644 – Palomar Mountain/NEAT MPS 49663
2001 12 19.15709 03 07 29.18 +19 44 02.8 20.7   644 – Palomar Mountain/NEAT MPS 49663
2001 12 19.16765 03 07 28.86 +19 44 02.3 20.8   644 – Palomar Mountain/NEAT MPS 49663
2003 01 05.31120 08 40 40.03 +25 13 21.5 19.7   704 – Lincoln Laboratory ETS, New Mexico MPS 103833
2003 01 05.32696 08 40 39.39 +25 13 23.9 19.9   704 – Lincoln Laboratory ETS, New Mexico MPS 103833
2003 01 05.35789 08 40 37.97 +25 13 30.8 20.0   704 – Lincoln Laboratory ETS, New Mexico MPS 103833
2004 03 19.33855 12 35 53.65 +00 44 19.3 19.6   704 – Lincoln Laboratory ETS, New Mexico MPS 103986
2004 03 19.34924 12 35 53.20 +00 44 21.6 19.8   704 – Lincoln Laboratory ETS, New Mexico MPS 103986
2004 03 19.36047 12 35 52.66 +00 44 25.1 20.3   704 – Lincoln Laboratory ETS, New Mexico MPS 103986
2004 03 19.37144 12 35 52.13 +00 44 27.4 20.4   704 – Lincoln Laboratory ETS, New Mexico MPS 103986
2004 03 19.38229 12 35 51.69 +00 44 30.1 20.0   704 – Lincoln Laboratory ETS, New Mexico MPS 103986
2004 03 22.34502 12 33 41.45 +00 56 15.5 19.4   704 – Lincoln Laboratory ETS, New Mexico MPS 103986
2004 03 22.35586 12 33 40.91 +00 56 18.5 20.0   704 – Lincoln Laboratory ETS, New Mexico MPS 103986
2004 03 22.36660 12 33 40.39 +00 56 19.3 20.2   704 – Lincoln Laboratory ETS, New Mexico MPS 103986
2004 03 22.37766 12 33 40.00 +00 56 23.0 20.3   704 – Lincoln Laboratory ETS, New Mexico MPS 103986
2004 03 22.38866 12 33 39.50 +00 56 25.8 20.1   704 – Lincoln Laboratory ETS, New Mexico MPS 103986
2004 03 28.33082 12 29 12.00 +01 19 46.8 19.2   704 – Lincoln Laboratory ETS, New Mexico MPS 106284
2004 03 28.34131 12 29 11.46 +01 19 47.7 19.4   704 – Lincoln Laboratory ETS, New Mexico MPS 106284
2004 03 28.35149 12 29 10.97 +01 19 51.0 20.1   704 – Lincoln Laboratory ETS, New Mexico MPS 106284
2004 03 28.36167 12 29 10.53 +01 19 52.1 19.7   704 – Lincoln Laboratory ETS, New Mexico MPS 106284
2004 03 28.37185 12 29 10.06 +01 19 54.6 19.9   704 – Lincoln Laboratory ETS, New Mexico MPS 106284
2004 04 19.12813 12 13 50.96 +02 29 12.6 20.2 V 691 – Steward Observatory, Kitt Peak-Spacewatch MPS 105159
2004 04 19.15481 12 13 49.99 +02 29 16.2 20.8 V 691 – Steward Observatory, Kitt Peak-Spacewatch MPS 105159
2004 04 19.18110 12 13 49.01 +02 29 19.4 20.6 V 691 – Steward Observatory, Kitt Peak-Spacewatch MPS 105159
2006 08 18.41619 00 35 57.88 -01 45 48.3   691 – Steward Observatory, Kitt Peak-Spacewatch MPS 175690
2006 08 18.43356 00 35 57.59 -01 45 50.4   691 – Steward Observatory, Kitt Peak-Spacewatch MPS 175690
2006 08 18.45092 00 35 57.29 -01 45 52.7   691 – Steward Observatory, Kitt Peak-Spacewatch MPS 175690
2006 08 28.36771 00 32 17.89 -02 10 56.2 18.9 R 699 – Lowell Observatory-LONEOS MPS 176895
2006 08 28.38600 00 32 17.35 -02 11 00.5   699 – Lowell Observatory-LONEOS MPS 176895
2006 08 28.40428 00 32 16.96 -02 11 03.7   699 – Lowell Observatory-LONEOS MPS 176895
2006 08 28.42255 00 32 16.23 -02 11 07.6   699 – Lowell Observatory-LONEOS MPS 176895
2006 09 12.41439 00 23 20.18 -03 03 04.2 18.7 V 703 – Catalina Sky Survey MPS 178291
2006 09 12.42080 00 23 19.96 -03 03 05.2 19.6 V 703 – Catalina Sky Survey MPS 178291
2006 09 12.42721 00 23 19.60 -03 03 07.7 19.3 V 703 – Catalina Sky Survey MPS 178291
2006 09 12.43360 00 23 19.50 -03 03 09.4 18.5 V 703 – Catalina Sky Survey MPS 178291
2006 09 16.24904 00 20 35.00 -03 17 39.6 19.1   704 – Lincoln Laboratory ETS, New Mexico MPS 179162
2006 09 16.27147 00 20 33.81 -03 17 46.5 19.1   704 – Lincoln Laboratory ETS, New Mexico MPS 179162
2006 09 16.28270 00 20 33.35 -03 17 49.2 19.0   704 – Lincoln Laboratory ETS, New Mexico MPS 179162
2006 09 18.27009 00 19 04.58 -03 25 24.9 19.2 V 703 – Catalina Sky Survey MPS 179162
2006 09 18.27723 00 19 04.22 -03 25 27.1 18.6 V 703 – Catalina Sky Survey MPS 179162
2006 09 18.28440 00 19 03.86 -03 25 28.2 18.9 V 703 – Catalina Sky Survey MPS 179162
2006 09 18.29155 00 19 03.54 -03 25 29.5 18.7 V 703 – Catalina Sky Survey MPS 179162
2006 09 18.30496 00 19 02.92 -03 25 33.1 18.8 R 699 – Lowell Observatory-LONEOS MPS 179162
2006 09 18.32689 00 19 01.87 -03 25 38.3   699 – Lowell Observatory-LONEOS MPS 179162
2006 09 18.34881 00 19 00.90 -03 25 43.5   699 – Lowell Observatory-LONEOS MPS 179162
2006 09 18.37076 00 18 59.87 -03 25 47.5   699 – Lowell Observatory-LONEOS MPS 179162
2006 09 22.23087 00 16 03.44 -03 40 24.9 19.1   704 – Lincoln Laboratory ETS, New Mexico MPS 180844
2006 09 22.24215 00 16 02.93 -03 40 25.9 19.4   704 – Lincoln Laboratory ETS, New Mexico MPS 180844
2006 09 22.25344 00 16 02.31 -03 40 30.7 18.9   704 – Lincoln Laboratory ETS, New Mexico MPS 180844
2006 09 22.26474 00 16 01.85 -03 40 33.2 19.2   704 – Lincoln Laboratory ETS, New Mexico MPS 180844
2006 09 26.22345 00 12 58.15 -03 54 59.8 19.0   704 – Lincoln Laboratory ETS, New Mexico MPS 180844
2006 09 26.23534 00 12 57.61 -03 55 01.8 19.8   704 – Lincoln Laboratory ETS, New Mexico MPS 180844
2006 09 26.24721 00 12 56.96 -03 55 04.9 19.5   704 – Lincoln Laboratory ETS, New Mexico MPS 180844
